FW8702 Weather Reports


Display with metric or nautical units.
time (UTC)temp
F
wind
direction
speed
MPH
gust
MPH
rain 1hr
in
rain 24hr
in
rain mn
in
humidity
%
barometer
mb
20260906214543 71 43 0.0 0.0 0.00 0.00 0.00 82 1024.1
20260906213018 71 19 0.0 0.0 0.00 0.00 0.00 82 1024.3
20260906211543 70 288 0.0 0.0 0.00 0.00 0.00 82 1024.1
20260906210015 70 306 0.0 1.0 0.00 0.00 0.00 82 1024.0
20260906204554 71 286 0.0 1.0 0.00 0.00 0.00 82 1023.8
20260906203030 71 286 0.0 0.0 0.00 0.00 0.00 82 1023.7
20260906201538 71 285 0.0 2.0 0.00 0.00 0.00 81 1023.6
20260906200055 72 289 0.0 2.0 0.00 0.00 0.00 80 1023.5
20260906194531 74 301 0.0 0.0 0.00 0.00 0.00 79 1023.6
20260906193026 74 331 0.0 1.0 0.00 0.00 0.00 78 1023.4
20260906191503 74 273 0.0 2.0 0.00 0.00 0.00 79 1023.3
20260906190012 74 304 0.0 0.0 0.00 0.00 0.00 79 1023.3
20260906184537 75 304 0.0 2.0 0.00 0.00 0.00 78 1023.1
20260906183043 75 312 0.0 2.0 0.00 0.00 0.00 77 1022.9
20260906181548 77 281 1.0 2.0 0.00 0.00 0.00 77 1022.8
20260906180103 78 269 0.0 1.0 0.00 0.00 0.00 75 1022.7
20260906174538 79 269 0.0 2.0 0.00 0.00 0.00 73 1022.7
20260906173056 82 231 0.0 0.0 0.00 0.00 0.00 70 1022.6
20260906171526 84 228 0.0 1.0 0.00 0.00 0.00 63 1022.5
20260906170108 86 171 0.0 1.0 0.00 0.00 0.00 59 1022.4
20260906164519 87 229 0.0 2.0 0.00 0.00 0.00 52 1022.4
20260906163016 88 229 0.0 1.0 0.00 0.00 0.00 53 1022.3
20260906161520 87 229 1.0 3.0 0.00 0.00 0.00 53 1022.4
20260906160059 87 202 0.0 3.0 0.00 0.00 0.00 54 1022.3
20260906154520 87 119 0.0 2.0 0.00 0.00 0.00 55 1022.2
20260906153024 87 139 0.0 2.0 0.00 0.00 0.00 54 1022.2
20260906151517 87 204 0.0 3.0 0.00 0.00 0.00 54 1022.3
20260906150028 87 203 1.0 5.0 0.00 0.00 0.00 56 1022.4
20260906144525 87 272 0.0 4.0 0.00 0.00 0.00 54 1022.5
20260906143058 88 217 1.0 4.0 0.00 0.00 0.00 54 1022.5
20260906141527 87 229 1.0 6.0 0.00 0.00 0.00 53 1022.6
20260906140054 87 237 1.0 6.0 0.00 0.00 0.00 53 1022.6
20260906134542 87 183 1.0 6.0 0.00 0.00 0.00 54 1022.6
20260906133005 87 204 0.0 3.0 0.00 0.00 0.00 54 1022.7
20260906131510 86 210 1.0 6.0 0.00 0.00 0.00 55 1023.0
20260906130006 86 225 3.0 5.0 0.00 0.00 0.00 54 1023.0
20260906124535 86 248 1.0 7.0 0.00 0.00 0.00 54 1023.2
20260906123040 87 213 0.0 4.0 0.00 0.00 0.00 53 1023.2
20260906121607 87 160 0.0 4.0 0.00 0.00 0.00 54 1023.3
20260906120013 86 222 0.0 4.0 0.00 0.00 0.00 54 1023.3
20260906114549 87 202 0.0 4.0 0.00 0.00 0.00 53 1023.4
20260906113017 84 219 3.0 7.0 0.00 0.00 0.00 56 1023.5
20260906111540 83 289 3.0 8.0 0.00 0.00 0.00 56 1023.5
20260906110025 84 213 1.0 6.0 0.00 0.00 0.00 56 1023.7
20260906104534 83 221 3.0 7.0 0.00 0.00 0.00 52 1023.7
20260906103026 83 13 0.0 4.0 0.00 0.00 0.00 54 1023.8
20260906101519 82 295 1.0 4.0 0.00 0.00 0.00 56 1024.1
20260906100037 81 274 2.0 5.0 0.00 0.00 0.00 54 1024.2
20260906094538 80 237 2.0 5.0 0.00 0.00 0.00 56 1024.2
20260906093044 80 277 2.0 4.0 0.00 0.00 0.00 56 1024.4
20260906091519 79 279 1.0 4.0 0.00 0.00 0.00 58 1024.5
20260906090016 81 272 2.0 4.0 0.00 0.00 0.00 58 1024.5
20260906084559 80 267 0.0 2.0 0.00 0.00 0.00 57 1024.3
20260906083020 79 267 0.0 2.0 0.00 0.00 0.00 60 1024.4
20260906081537 77 280 3.0 5.0 0.00 0.00 0.00 62 1024.4
20260906080040 78 196 0.0 3.0 0.00 0.00 0.00 60 1024.2
20260906074601 77 273 1.0 3.0 0.00 0.00 0.00 60 1024.1
20260906073101 77 289 1.0 3.0 0.00 0.00 0.00 62 1024.0
20260906071513 75 269 1.0 3.0 0.00 0.00 0.00 65 1023.9
20260906070057 74 8 0.0 2.0 0.00 0.00 0.00 68 1024.0
20260906064530 73 287 0.0 2.0 0.00 0.00 0.00 71 1023.7
20260906063002 70 344 0.0 3.0 0.00 0.00 0.00 75 1023.7
20260906061543 68 326 0.0 3.0 0.00 0.00 0.00 78 1023.6
20260906060047 68 295 0.0 2.0 0.00 0.00 0.00 75 1023.5
20260906054517 67 282 0.0 2.0 0.00 0.00 0.00 76 1023.1
20260906053013 68 281 0.0 1.0 0.00 0.00 0.00 74 1023.0
20260906051503 68 332 3.0 4.0 0.00 0.00 0.00 76 1022.8
20260906050048 65 276 0.0 2.0 0.00 0.00 0.00 80 1022.6
20260906044512 65 276 1.0 4.0 0.00 0.00 0.00 79 1022.4
20260906043016 65 279 2.0 3.0 0.00 0.00 0.00 78 1022.5
20260906041515 65 266 1.0 3.0 0.00 0.00 0.00 77 1022.3
20260906040032 66 314 0.0 3.0 0.00 0.00 0.00 75 1022.3
20260906034528 67 58 0.0 2.0 0.00 0.00 0.00 74 1022.3
20260906033038 68 285 0.0 2.0 0.00 0.00 0.00 71 1022.2
20260906031526 69 335 0.0 2.0 0.00 0.00 0.00 69 1022.0
20260906030045 68 266 1.0 3.0 0.00 0.00 0.00 71 1021.8
20260906024530 66 271 0.0 2.0 0.00 0.00 0.00 76 1021.7
20260906023004 66 277 0.0 3.0 0.00 0.00 0.00 78 1021.6
20260906021544 66 339 0.0 1.0 0.00 0.00 0.00 78 1021.6
20260906020011 67 272 0.0 3.0 0.00 0.00 0.00 75 1021.4
20260906014604 69 285 0.0 2.0 0.00 0.00 0.00 72 1021.4
20260906013051 71 342 1.0 3.0 0.00 0.00 0.00 69 1021.3
20260906011546 71 88 2.0 4.0 0.00 0.00 0.00 68 1021.2
20260906010007 72 55 0.0 5.0 0.00 0.00 0.00 69 1021.0
20260906004537 72 252 1.0 3.0 0.00 0.00 0.00 69 1020.9
20260906003002 72 221 2.0 7.0 0.00 0.00 0.00 71 1020.8
20260906001501 70 342 0.0 4.0 0.00 0.00 0.00 73 1020.8
20260905234540 72 22 0.0 3.0 0.00 0.00 0.00 73 1020.8
20260905233026 72 233 1.0 4.0 0.00 0.00 0.00 72 1020.9
20260905231501 74 308 1.0 8.0 0.00 0.00 0.00 70 1021.0
20260905230100 72 236 3.0 4.0 0.00 0.00 0.00 73 1020.9
20260905224557 71 230 1.0 6.0 0.00 0.00 0.00 76 1020.8
20260905223009 70 283 1.0 6.0 0.00 0.00 0.00 79 1020.8
20260905221540 70 288 1.0 3.0 0.00 0.00 0.00 80 1020.5